Location: Unspecified
(41.5000°N, 0.0000°E)
Time: 03:39:05
(UTC+00:00)

Tiros 1 despin weight - All Passes

Search period start: 26 June 2019 00:00
Search period end: 06 July 2019 00:00
Orbit: 595 x 642 km, 48.2° (Epoch: 25 June)

Date Brightness Start Highest point End Pass type
(mag) Time Alt. Az. Time Alt. Az. Time Alt. Az.
26 Jun - 00:52:16 10° WNW 00:56:22 34° N 01:00:25 10° ENE visible
26 Jun - 02:34:00 10° WNW 02:38:25 66° NNE 02:42:48 10° ESE visible
26 Jun - 04:15:54 10° WNW 04:19:44 30° SW 04:23:35 10° SSE daylight
26 Jun - 20:04:27 10° S 20:07:54 22° SE 20:11:19 10° E visible
26 Jun - 21:44:33 10° WSW 21:49:04 84° NNW 21:53:32 10° ENE visible
26 Jun - 23:26:51 10° WNW 23:31:01 36° N 23:35:08 10° ENE visible
27 Jun - 01:09:04 10° WNW 01:13:15 39° NNE 01:17:25 10° E visible
27 Jun - 02:50:39 10° WNW 02:55:05 77° SSW 02:59:29 10° SE visible
27 Jun - 04:33:27 10° W 04:36:04 15° SW 04:38:40 10° S daylight
27 Jun - 20:20:03 10° SSW 20:24:17 40° SE 20:28:29 10° ENE visible
27 Jun - 22:01:22 10° W 22:05:47 55° NNW 22:10:09 10° ENE visible
27 Jun - 23:43:51 10° WNW 23:47:56 34° N 23:51:58 10° ENE visible
28 Jun - 01:25:44 10° WNW 01:30:05 52° NNE 01:34:24 10° E visible
28 Jun - 03:07:25 10° WNW 03:11:36 42° SW 03:15:46 10° SSE visible
28 Jun - 18:57:16 10° SSE 18:59:49 15° SE 19:02:22 10° E daylight
28 Jun - 20:36:18 10° SW 20:40:48 73° SSE 20:45:16 10° ENE visible
28 Jun - 22:18:20 10° W 22:22:36 41° NNW 22:26:50 10° ENE visible
29 Jun - 00:00:43 10° WNW 00:04:51 36° N 00:08:57 10° ENE visible
29 Jun - 01:42:22 10° WNW 01:46:49 80° NNE 01:51:14 10° ESE visible
29 Jun - 03:24:32 10° W 03:28:00 23° SW 03:31:27 10° S visible
29 Jun - 19:12:14 10° SSW 19:16:08 28° SE 19:20:00 10° E daylight
29 Jun - 20:52:56 10° WSW 20:57:27 70° NNW 21:01:55 10° ENE visible
29 Jun - 22:35:22 10° WNW 22:39:30 35° N 22:43:35 10° ENE visible
30 Jun - 00:17:27 10° WNW 00:21:43 44° NNE 00:25:58 10° E visible
30 Jun - 01:59:03 10° WNW 02:03:25 60° SSW 02:07:45 10° SE visible
30 Jun - 03:42:55 10° WSW 03:44:15 11° SW 03:45:36 10° SSW visible
30 Jun - 19:28:09 10° SW 19:32:35 52° SE 19:36:58 10° ENE daylight
30 Jun - 21:09:50 10° W 21:14:13 48° NNW 21:18:33 10° ENE visible
30 Jun - 22:52:18 10° WNW 22:56:26 34° N 23:00:29 10° ENE visible
01 Jul - 00:34:06 10° WNW 00:38:31 62° NNE 00:42:53 10° ESE visible
01 Jul - 02:15:56 10° WNW 02:19:53 32° SW 02:23:49 10° SSE visible
01 Jul - 18:04:42 10° S 18:08:01 20° SE 18:11:19 10° E daylight
01 Jul - 19:44:35 10° WSW 19:49:09 90° NW 19:53:40 10° ENE daylight
01 Jul - 21:26:51 10° WNW 21:31:05 38° N 21:35:15 10° ENE visible
01 Jul - 23:09:07 10° WNW 23:13:20 38° N 23:17:29 10° E visible
02 Jul - 00:50:44 10° WNW 00:55:11 83° SSW 00:59:37 10° ESE visible
02 Jul - 02:33:20 10° W 02:36:13 17° SW 02:39:06 10° S visible
02 Jul - 18:20:11 10° SSW 18:24:24 37° SE 18:28:34 10° ENE daylight
02 Jul - 20:01:22 10° WSW 20:05:51 58° NNW 20:10:17 10° ENE visible
02 Jul - 21:43:51 10° WNW 21:48:00 34° N 21:52:04 10° ENE visible
02 Jul - 23:25:49 10° WNW 23:30:11 50° NNE 23:34:29 10° E visible
03 Jul - 01:07:29 10° WNW 01:11:44 46° SW 01:15:57 10° SE visible
03 Jul - 16:57:40 10° SSE 16:59:57 14° SE 17:02:13 10° ESE daylight
03 Jul - 18:36:21 10° SW 18:40:54 67° SSE 18:45:23 10° ENE daylight
03 Jul - 20:18:19 10° W 20:22:40 42° NNW 20:26:57 10° ENE visible
03 Jul - 22:00:45 10° WNW 22:04:55 36° N 22:09:01 10° ENE visible
03 Jul - 23:42:26 10° WNW 23:46:55 75° NNE 23:51:20 10° ESE visible
04 Jul - 01:24:31 10° W 01:28:09 25° SW 01:31:44 10° SSE visible
04 Jul - 17:12:25 10° SSW 17:16:15 26° SE 17:20:03 10° E daylight
04 Jul - 18:52:57 10° WSW 18:57:32 75° NNW 19:02:03 10° ENE daylight
04 Jul - 20:35:21 10° WNW 20:39:33 36° N 20:43:42 10° ENE visible
04 Jul - 22:17:30 10° WNW 22:21:48 42° NNE 22:26:02 10° E visible
04 Jul - 23:59:07 10° WNW 00:03:32 66° SSW 00:07:55 10° SE visible
05 Jul - 01:42:31 10° WSW 01:44:25 13° SW 01:46:20 10° SSW night (unlit)
05 Jul - 17:28:14 10° SW 17:32:40 48° SE 17:37:04 10° ENE daylight
05 Jul - 19:09:49 10° W 19:14:16 50° NNW 19:18:41 10° ENE daylight
05 Jul - 20:52:19 10° WNW 20:56:28 34° N 21:00:34 10° ENE visible
05 Jul - 22:34:09 10° WNW 22:38:36 59° NNE 22:42:59 10° ESE visible
